Location: Newark
(45.6167°N, 9.2167°E)
Time: 17:45:36
(UTC+00:00)

Envisat - Visible Passes

Search period start: 23 October 2019 00:00
Search period end: 02 November 2019 00:00
Orbit: 764 x 766 km, 98.1° (Epoch: 23 October)

Date Brightness Start Highest point End Pass type
(mag) Time Alt. Az. Time Alt. Az. Time Alt. Az.
23 Oct 3.0 17:19:54 10° SSE 17:24:59 86° ENE 17:30:06 10° NNW visible
23 Oct 6.1 19:02:36 10° WSW 19:04:41 12° W 19:06:47 10° WNW visible
24 Oct 3.4 16:43:36 10° SE 16:48:20 42° ENE 16:53:06 10° N visible
24 Oct 5.2 18:23:15 10° SSW 18:27:30 27° W 18:31:46 10° NW visible
25 Oct 6.5 04:52:14 10° ENE 04:54:02 12° E 04:55:50 10° ESE visible
25 Oct 3.7 17:45:32 10° S 17:50:31 56° W 17:55:32 10° NNW visible
26 Oct 2.9 17:08:41 10° SSE 17:13:44 70° ENE 17:18:48 10° N visible
26 Oct 5.9 18:50:15 10° SW 18:53:16 16° W 18:56:19 10° NW visible
27 Oct 6.0 05:16:06 10° NE 05:19:53 20° E 05:23:36 10° SE visible
27 Oct 4.8 18:11:35 10° SSW 18:16:09 33° W 18:20:44 10° NNW visible
28 Oct 3.3 17:34:10 10° S 17:39:13 70° WSW 17:44:19 10° NNW visible
29 Oct 3.1 16:57:33 10° SSE 17:02:30 56° ENE 17:07:28 10° N visible
29 Oct 5.6 18:38:14 10° SW 18:41:53 20° W 18:45:33 10° NW visible
30 Oct 6.1 05:05:19 10° NE 05:08:29 16° E 05:11:38 10° SE visible
30 Oct 4.3 18:00:03 10° SSW 18:04:49 41° W 18:09:37 10° NNW visible
31 Oct 3.0 17:22:52 10° SSE 17:27:57 87° WSW 17:33:04 10° NNW visible
31 Oct 6.2 19:06:11 10° WSW 19:07:42 11° W 19:09:15 10° WNW visible
01 Nov 5.5 05:29:55 10° NE 05:34:15 28° E 05:38:33 10° SSE visible
01 Nov 3.3 16:46:28 10° SE 16:51:17 45° ENE 16:56:07 10° N visible
01 Nov 5.3 18:26:24 10° SSW 18:30:30 24° W 18:34:38 10° NW visible
